Weather Roundup
Issued by NWS

Home | Current Version | Previous Version | Graphics & Text | Print | Product List | Glossary Off
Versions: 1 2 3 4 5 6 7 8 9 10 11 12 13 14 15 16 17 18 19 20 21 22 23 24 25 26 27 28 29 30 31 32 33 34 35 36 37 38 39 40 41 42 43 44 45 46 47 48 49 50

652
NZUS93 KARX 270810
HRRWXR

CURRENT HOURLY OBSERVATIONS ACROSS
MUCH OF THE UPPER MISSISSIPPI VALLEY
NATIONAL WEATHER SERVICE LA CROSSE WI
300 AM CDT WED JUL 27 2016


...SOUTHEAST MINNESOTA...


CITY           SKY/WX    TMP DP  RH WIND       PRES   REMARKS
ROCHESTER      CLEAR     67  65  93 CALM      30.01F
ROCHESTER/MAYO FAIR      72  66  81 CALM      30.01S
WINONA         CLEAR     70  68  94 SW3       29.98F
AUSTIN         PTCLDY    68  64  88 SW3       30.01S
ALBERT LEA     PTCLDY    72  66  83 SW5       30.01S
DODGE CENTER   PTCLDY    64  63  94 CALM      30.01S FOG
PRESTON        PTCLDY    68  64  86 W3        30.02R
OWATONNA       CLOUDY    70  66  88 CALM      30.01R
FARIBAULT      CLOUDY    72  70  94 CALM      30.00S
$$

...ELSEWHERE IN MINNESOTA...


CITY           SKY/WX    TMP DP  RH WIND       PRES   REMARKS
MINNEAPOLIS    CLOUDY    79  68  69 SW8       29.97S
INTNL FALLS    CLOUDY    68  57  68 NE3       29.99S
DULUTH         MOCLDY    69  67  93 CALM      29.96F
RED WING       PTCLDY    70  66  88 W3        29.97R
REDWOOD FALLS  CLOUDY    73  67  81 S5        29.98R
MANKATO        PTCLDY    72  64  78 S3        30.00R
WORTHINGTON    PTCLDY    71  65  81 S12       30.00F
FAIRMONT       CLOUDY    70  64  83 SW7       30.00R
$$

...SOUTHWEST WISCONSIN...


CITY           SKY/WX    TMP DP  RH WIND       PRES   REMARKS
LA CROSSE      CLEAR     71  68  90 SE5       29.97F
PRAIRIE DU CHI CLEAR     67  64  91 E3        29.99F
BOSCOBEL       PTCLDY    65  64  97 CALM      30.00S FOG
LONE ROCK      CLEAR     64  63  96 CALM      30.01S
PLATTEVILLE    CLEAR     69  67  94 CALM      30.02S
FORT MC COY    CLEAR     63  63 100 CALM      30.00F
CAMP DOUGLAS   CLEAR     63  63  99 SE5       29.99S
MAUSTON-NEW LI SUNNY     65  65  98 CALM      29.99F
VIROQUA        FAIR      66  66 100 CALM      30.03R
WIS DELLS      PTCLDY    65  62  91 S3        30.00F
$$

...ELSEWHERE IN WISCONSIN...


CITY           SKY/WX    TMP DP  RH WIND       PRES   REMARKS
MILWAUKEE      CLEAR     73  65  75 SW3       29.99S
MADISON        CLEAR     67  64  90 CALM      30.00S
GREEN BAY      CLEAR     73  70  90 SW3       29.96S
EAU CLAIRE     CLOUDY    69  68  96 CALM      29.97F
BLACK RVR FLS  FAIR      64  64 100 CALM      29.98F
MEDFORD        PTCLDY    63  63 100 CALM      30.00F
WAUSAU         PTCLDY    71  64  78 NW3       29.98F
WIS RAPIDS     CLEAR     69  65  86 SW3       30.00F
MARSHFIELD     CLEAR     69  66  90 W3        29.99F
RICE LAKE      CLOUDY    67  64  91 CALM      30.00S
$$

...NORTHEAST IOWA...


CITY           SKY/WX    TMP DP  RH WIND       PRES   REMARKS
WATERLOO       CLEAR     65  63  93 N3        30.00S
DUBUQUE        CLEAR     66  63  90 CALM      30.02F
DECORAH        PTCLDY    68  66  94 CALM      30.00S
MASON CITY     PTCLDY    66  63  90 S6        30.03S
CHARLES CITY   PTCLDY    66  66 100 SW3       30.02R
OELWEIN        NOT AVBL
$$

...ELSEWHERE IN IOWA...


CITY           SKY/WX    TMP DP  RH WIND       PRES   REMARKS
DES MOINES     PTCLDY    73  65  75 S5        30.00S
IOWA CITY      CLOUDY    68  65  90 CALM      30.01S
FORT DODGE     CLOUDY    66  63  88 CALM      30.03R
MARSHALLTOWN   PTCLDY    64  63  96 CALM      30.00F
CEDAR RAPIDS   CLOUDY    66  66 100 CALM      30.00F
$$

...NORTHERN ILLINOIS...


CITY           SKY/WX    TMP DP  RH WIND       PRES   REMARKS
CHICAGO-OHARE  CLEAR     71  63  75 SW3       29.99S
CHICAGO-MIDWAY CLEAR     75  63  66 CALM      29.99S
MOLINE         CLEAR     68  64  87 CALM      29.99S
ROCKFORD       CLEAR     68  65  90 CALM      30.02R
PEORIA         PTCLDY    71  70  96 CALM      29.99F
$$

NOTE: "FAIR" INDICATES FEW OR NO CLOUDS BELOW 12,000 FEET WITH NO
SIGNIFICANT WEATHER AND/OR OBSTRUCTIONS TO VISIBILITY. WIND
SPEEDS ARE IN MILES-PER-HOUR.




USA.gov is the U.S. government's official web portal to all federal, state and local government web resources and services.